TimeMDT,TemperatureF,Dew PointF,Humidity,Sea Level PressureIn,VisibilityMPH,Wind Direction,Wind SpeedMPH,Gust SpeedMPH,PrecipitationIn,Events,Conditions,WindDirDegrees,DateUTC
12:56 AM,62.1,27.0,26,29.50,-9999.0,WSW,9.2,-,N/A,,Unknown,240,2013-10-04 06:56:00
1:56 AM,59.0,28.0,31,29.51,-9999.0,SSW,5.8,-,N/A,,Unknown,210,2013-10-04 07:56:00
2:56 AM,52.0,30.9,45,29.50,-9999.0,SW,6.9,-,N/A,,Unknown,220,2013-10-04 08:56:00
3:56 AM,55.9,30.9,39,29.50,-9999.0,SW,9.2,-,N/A,,Unknown,230,2013-10-04 09:56:00
4:56 AM,48.0,30.9,52,29.53,-9999.0,SW,9.2,-,N/A,,Unknown,220,2013-10-04 10:56:00
5:56 AM,46.9,32.0,56,29.59,-9999.0,NNW,9.2,-,N/A,,Unknown,340,2013-10-04 11:56:00
6:56 AM,48.0,46.0,93,29.64,-9999.0,NW,10.4,-,N/A,,Unknown,320,2013-10-04 12:56:00
7:56 AM,53.1,48.0,83,29.67,-9999.0,NW,6.9,-,N/A,,Unknown,320,2013-10-04 13:56:00
8:56 AM,57.0,48.0,72,29.71,-9999.0,NNW,18.4,-,N/A,,Unknown,330,2013-10-04 14:56:00
9:56 AM,61.0,46.9,60,29.73,-9999.0,NNW,21.9,31.1,N/A,,Unknown,340,2013-10-04 15:56:00
10:56 AM,59.0,43.0,55,29.77,-9999.0,NNW,20.7,31.1,N/A,,Unknown,340,2013-10-04 16:56:00
11:56 AM,62.1,39.0,43,29.78,-9999.0,NNW,20.7,31.1,N/A,,Unknown,340,2013-10-04 17:56:00
12:56 PM,63.0,37.0,38,29.78,-9999.0,North,21.9,-,N/A,,Unknown,350,2013-10-04 18:56:00
1:56 PM,63.0,32.0,31,29.79,-9999.0,North,21.9,32.2,N/A,,Unknown,350,2013-10-04 19:56:00
2:56 PM,62.1,30.0,30,29.83,-9999.0,North,19.6,28.8,N/A,,Unknown,360,2013-10-04 20:56:00
3:56 PM,61.0,28.9,30,29.83,-9999.0,North,19.6,-,N/A,,Unknown,360,2013-10-04 21:56:00
4:56 PM,57.9,28.0,32,29.89,-9999.0,North,20.7,26.5,N/A,,Unknown,350,2013-10-04 22:56:00
5:56 PM,54.0,27.0,35,29.92,-9999.0,North,20.7,31.1,N/A,,Unknown,350,2013-10-04 23:56:00
6:56 PM,51.1,27.0,39,29.99,-9999.0,North,18.4,26.5,N/A,,Unknown,360,2013-10-05 00:56:00
7:56 PM,46.9,28.0,48,30.03,-9999.0,NNW,23.0,29.9,N/A,,Unknown,340,2013-10-05 01:56:00
8:56 PM,43.0,26.1,51,30.07,-9999.0,North,17.3,26.5,N/A,,Unknown,350,2013-10-05 02:56:00
9:56 PM,39.9,23.0,51,30.09,-9999.0,North,12.7,23.0,N/A,,Unknown,350,2013-10-05 03:56:00
10:56 PM,39.9,21.9,49,30.09,-9999.0,North,23.0,28.8,N/A,,Unknown,350,2013-10-05 04:56:00
11:56 PM,39.9,23.0,51,30.10,-9999.0,North,17.3,23.0,N/A,,Unknown,350,2013-10-05 05:56:00